Grand Junction, CO

7:30 PM MDT on March 28, 2017 (GMT -0600)
MAU407 | | Change Station

Elev 4601 ft 39.07 °N, 108.56 °W | Updated 35 minutes ago

Overcast
Overcast
52.0 °F
Feels Like 52.0 °F
N
4.0
Wind Variable Wind from NW
Gusts 12.0 mph

Today
High -- | Low -- °F
--% Chance of Precip.
Yesterday
High -- | Low -- °F
Precip. -- in
Pressure 29.88 in
Visibility 10.0 miles
Clouds Overcast 6000 ft
Dew Point 35 °F
Humidity 53%
Rainfall in
Snow Depth Not available.
7:04 AM 7:34 PM
New Moon, 1% visible
METAR KGJT 290053Z 33007KT 10SM OVC060 11/04 A2995 RMK AO2 SLP119 T01060044
Pressure 29.88 in
Visibility 10.0 miles
Clouds Overcast 6000 ft
Dew Point 35 °F
Humidity 53%
Rainfall in
Snow Depth Not available.
7:04 AM 7:34 PM
New Moon, 1% visible
METAR KGJT 290053Z 33007KT 10SM OVC060 11/04 A2995 RMK AO2 SLP119 T01060044

Get Severe Weather Alerts

Thanks for signing up!

Be on the lookout for a verification email in your inbox.

You'll start receiving the daily forecast at 8 AM.

×

10-Day Weather Forecast

Almanac

Astronomy

Mar. 28, 2017 Rise Set
Actual Time
Civil Twilight
Nautical Twilight
Astronomical Twilight
Moon
Length of Visible Light
Length of Day
Tomorrow will be .
, % of the Moon is Illuminated

Today's Extremes

State Highs State Lows

Community

WunderPhotos

Upload Photos

1,962,540 photos uploaded!

WunderBlog® & News

Nearby

Air Quality

  Air Quality AQ Index Pollutant
Not available.

Snow Depth

Station Depth Elevation

Earthquake Activity

City Distance Mag. Time & Date
Minimum magnitude displayed is 2.5.

Earthquake Activity

City Distance Mag. Time & Date
Minimum magnitude displayed is 2.5.

Coastal Water Temperatures

Place Temperature

Stations

Nearby Weather Stations

Station Location Temp. Windchill Dew Point Humidity Wind Precip. Elev Updated Type
                   

Watches & Warnings

There are currently no watches in effect.